C/2016 N6 ( PanSTARRS )

Japanese version
Home page
Updated on October 14, 2018

---------------------------------------------------------------------

* Profile

Discovery Date July 14, 2016
Magnitude 20.7 mag
Discoverer Pan-STARRS 1 telescope (Haleakala)

* Pictures

* Orbital Elements

Epoch 2018 July 21.0 TT = JDT 2458320.5
T 2018 July 18.21024 TT                                 MPCW
q   2.6690752            (2000.0)            P               Q
z  +0.0004659      Peri.  162.80571     -0.53335037     +0.08479498
 +/-0.0000002      Node   298.97627     +0.61778684     +0.71869488
e   0.9987564      Incl.  105.83228     +0.57782074     -0.69013585
From 2283 observations 2016 June 27-2018 Sept. 16, mean residual 0".4.

* Finding Charts

* Magnitudes Graph

        m1 = 3.5 + 5 log d + 14.0 log r

---------------------------------------------------------------------

The orbital elements are published on M.P.E.C. 2018-S50.
The charts are made with StellaNavigator Ver.10 (AstroArts).
The magnitudes graphs are made with Comet for Windows.

---------------------------------------------------------------------

Copyright(C) Seiichi Yoshida (comet@aerith.net). All rights reserved.